| time (UTC) | temp C | wind direction | speed KPH | gust KPH | rain 1hr cm | rain 24hr cm | rain mn cm | humidity % | barometer mb |
| 20260507234537 | 11 | 120 | 22.5 | 30.6 | 0.00 | 0.00 | 0.00 | 84 | 1013.9 |
| 20260507234016 | 11 | 128 | 25.7 | 30.6 | 0.00 | 0.00 | 0.00 | 83 | 1014.0 |
| 20260507233508 | 11 | 127 | 24.1 | 32.2 | 0.00 | 0.00 | 0.00 | 83 | 1013.9 |
| 20260507233101 | 11 | 125 | 27.4 | 33.8 | 0.00 | 0.00 | 0.00 | 82 | 1013.8 |
| 20260507232548 | 11 | 126 | 29.0 | 33.8 | 0.00 | 0.00 | 0.00 | 82 | 1013.9 |
| 20260507232037 | 11 | 117 | 24.1 | 30.6 | 0.00 | 0.00 | 0.00 | 83 | 1013.9 |
| 20260507231527 | 11 | 123 | 24.1 | 30.6 | 0.00 | 0.00 | 0.00 | 82 | 1013.9 |
| 20260507231017 | 11 | 129 | 24.1 | 33.8 | 0.00 | 0.00 | 0.00 | 82 | 1013.9 |
| 20260507230507 | 11 | 128 | 29.0 | 33.8 | 0.00 | 0.00 | 0.00 | 82 | 1014.0 |
| 20260507230111 | 11 | 130 | 27.4 | 33.8 | 0.00 | 0.00 | 0.00 | 82 | 1013.9 |
| 20260507225548 | 11 | 132 | 27.4 | 33.8 | 0.00 | 0.00 | 0.00 | 83 | 1014.0 |
| 20260507225038 | 11 | 131 | 25.7 | 37.0 | 0.00 | 0.00 | 0.00 | 84 | 1014.1 |
| 20260507224524 | 11 | 126 | 27.4 | 37.0 | 0.00 | 0.00 | 0.00 | 83 | 1014.1 |
| 20260507224003 | 11 | 120 | 29.0 | 33.8 | 0.00 | 0.00 | 0.00 | 83 | 1014.0 |
| 20260507223555 | 12 | 120 | 27.4 | 37.0 | 0.00 | 0.00 | 0.00 | 83 | 1014.1 |
| 20260507223045 | 11 | 121 | 30.6 | 37.0 | 0.00 | 0.00 | 0.00 | 82 | 1014.0 |
| 20260507222536 | 11 | 116 | 29.0 | 37.0 | 0.00 | 0.00 | 0.00 | 82 | 1013.9 |
| 20260507222025 | 11 | 115 | 30.6 | 37.0 | 0.00 | 0.00 | 0.00 | 82 | 1013.9 |
| 20260507221515 | 12 | 110 | 29.0 | 37.0 | 0.00 | 0.00 | 0.00 | 82 | 1013.9 |
| 20260507221008 | 12 | 113 | 30.6 | 37.0 | 0.00 | 0.00 | 0.00 | 81 | 1014.0 |
| 20260507220559 | 11 | 111 | 30.6 | 38.6 | 0.00 | 0.00 | 0.00 | 81 | 1013.9 |
| 20260507220053 | 11 | 109 | 32.2 | 38.6 | 0.00 | 0.00 | 0.00 | 81 | 1014.0 |
| 20260507215536 | 11 | 116 | 32.2 | 38.6 | 0.00 | 0.00 | 0.00 | 83 | 1014.1 |
| 20260507215026 | 11 | 111 | 32.2 | 38.6 | 0.00 | 0.00 | 0.00 | 82 | 1014.1 |
| 20260507214516 | 11 | 109 | 32.2 | 38.6 | 0.00 | 0.00 | 0.00 | 82 | 1014.1 |
| 20260507214109 | 11 | 113 | 32.2 | 40.2 | 0.00 | 0.00 | 0.00 | 83 | 1014.1 |
| 20260507213547 | 11 | 117 | 33.8 | 41.8 | 0.00 | 0.00 | 0.00 | 83 | 1014.1 |
| 20260507213037 | 11 | 124 | 33.8 | 41.8 | 0.00 | 0.00 | 0.00 | 83 | 1014.1 |
| 20260507212526 | 12 | 129 | 33.8 | 43.5 | 0.00 | 0.00 | 0.00 | 84 | 1014.1 |
| 20260507212017 | 11 | 120 | 37.0 | 43.5 | 0.00 | 0.00 | 0.00 | 83 | 1014.1 |
| 20260507211506 | 11 | 121 | 32.2 | 41.8 | 0.00 | 0.00 | 0.00 | 84 | 1014.0 |
| 20260507211057 | 11 | 122 | 37.0 | 43.5 | 0.00 | 0.00 | 0.00 | 83 | 1014.0 |
| 20260507210550 | 11 | 118 | 37.0 | 43.5 | 0.00 | 0.00 | 0.00 | 84 | 1014.0 |
| 20260507210041 | 11 | 123 | 32.2 | 40.2 | 0.00 | 0.00 | 0.00 | 85 | 1013.9 |
| 20260507205528 | 12 | 119 | 32.2 | 40.2 | 0.00 | 0.00 | 0.00 | 85 | 1013.9 |
| 20260507205017 | 11 | 115 | 35.4 | 40.2 | 0.00 | 0.00 | 0.00 | 84 | 1013.9 |
| 20260507204507 | 12 | 115 | 33.8 | 40.2 | 0.00 | 0.00 | 0.00 | 84 | 1013.9 |
| 20260507204102 | 11 | 120 | 32.2 | 40.2 | 0.00 | 0.00 | 0.00 | 84 | 1013.9 |
| 20260507203538 | 11 | 127 | 29.0 | 38.6 | 0.00 | 0.00 | 0.00 | 84 | 1013.9 |
| 20260507203040 | 11 | 126 | 30.6 | 35.4 | 0.00 | 0.00 | 0.00 | 84 | 1013.8 |
| 20260507202520 | 11 | 131 | 30.6 | 33.8 | 0.00 | 0.00 | 0.00 | 84 | 1013.7 |
| 20260507202007 | 12 | 126 | 27.4 | 37.0 | 0.00 | 0.00 | 0.00 | 85 | 1013.7 |
| 20260507201559 | 11 | 127 | 30.6 | 37.0 | 0.00 | 0.00 | 0.00 | 84 | 1013.7 |
| 20260507201050 | 11 | 131 | 32.2 | 37.0 | 0.00 | 0.00 | 0.00 | 84 | 1013.6 |
| 20260507200542 | 11 | 128 | 32.2 | 38.6 | 0.00 | 0.00 | 0.00 | 85 | 1013.5 |
| 20260507200030 | 11 | 130 | 33.8 | 38.6 | 0.00 | 0.00 | 0.00 | 86 | 1013.4 |
| 20260507195519 | 11 | 134 | 32.2 | 38.6 | 0.00 | 0.00 | 0.00 | 86 | 1013.3 |
| 20260507195009 | 11 | 126 | 30.6 | 35.4 | 0.00 | 0.00 | 0.00 | 86 | 1013.2 |
| 20260507194620 | 11 | 123 | 30.6 | 33.8 | 0.00 | 0.00 | 0.00 | 86 | 1013.2 |
| 20260507194051 | 11 | 128 | 29.0 | 37.0 | 0.00 | 0.00 | 0.00 | 86 | 1013.2 |
| 20260507193529 | 11 | 123 | 29.0 | 37.0 | 0.00 | 0.00 | 0.00 | 86 | 1013.2 |
| 20260507193020 | 11 | 128 | 29.0 | 38.6 | 0.00 | 0.00 | 0.00 | 86 | 1013.2 |
| 20260507192508 | 11 | 125 | 32.2 | 37.0 | 0.00 | 0.00 | 0.00 | 85 | 1013.1 |
| 20260507192100 | 11 | 122 | 30.6 | 38.6 | 0.00 | 0.00 | 0.00 | 85 | 1013.1 |
| 20260507191551 | 11 | 119 | 32.2 | 38.6 | 0.00 | 0.00 | 0.00 | 85 | 1013.1 |
| 20260507191040 | 12 | 119 | 27.4 | 33.8 | 0.00 | 0.00 | 0.00 | 85 | 1013.2 |
| 20260507190530 | 12 | 128 | 27.4 | 32.2 | 0.00 | 0.00 | 0.00 | 85 | 1013.1 |
| 20260507190020 | 12 | 119 | 25.7 | 32.2 | 0.00 | 0.00 | 0.00 | 85 | 1013.1 |
| 20260507185510 | 11 | 127 | 29.0 | 32.2 | 0.00 | 0.00 | 0.00 | 85 | 1013.2 |
| 20260507185101 | 12 | 128 | 25.7 | 32.2 | 0.00 | 0.00 | 0.00 | 85 | 1013.2 |
| 20260507184552 | 11 | 125 | 27.4 | 32.2 | 0.00 | 0.00 | 0.00 | 85 | 1013.2 |
| 20260507184042 | 11 | 126 | 25.7 | 29.0 | 0.00 | 0.00 | 0.00 | 85 | 1013.2 |
| 20260507183520 | 11 | 135 | 25.7 | 29.0 | 0.00 | 0.00 | 0.00 | 85 | 1013.2 |
| 20260507183012 | 12 | 128 | 24.1 | 29.0 | 0.00 | 0.00 | 0.00 | 85 | 1013.2 |
| 20260507182605 | 12 | 125 | 24.1 | 29.0 | 0.00 | 0.00 | 0.00 | 85 | 1013.1 |
| 20260507182052 | 12 | 117 | 22.5 | 27.4 | 0.00 | 0.00 | 0.00 | 85 | 1013.2 |
| 20260507181543 | 12 | 124 | 24.1 | 29.0 | 0.00 | 0.00 | 0.00 | 85 | 1013.1 |
| 20260507181031 | 12 | 136 | 24.1 | 29.0 | 0.00 | 0.00 | 0.00 | 85 | 1013.1 |
| 20260507180522 | 12 | 133 | 22.5 | 27.4 | 0.00 | 0.00 | 0.00 | 85 | 1013.1 |
| 20260507180012 | 12 | 139 | 22.5 | 27.4 | 0.00 | 0.00 | 0.00 | 85 | 1013.2 |
| 20260507175601 | 12 | 129 | 22.5 | 25.7 | 0.00 | 0.00 | 0.00 | 85 | 1013.1 |
| 20260507175051 | 12 | 134 | 20.9 | 24.1 | 0.00 | 0.00 | 0.00 | 85 | 1013.1 |
| 20260507174545 | 12 | 134 | 20.9 | 24.1 | 0.00 | 0.00 | 0.00 | 84 | 1013.1 |
| 20260507174022 | 12 | 128 | 20.9 | 24.1 | 0.00 | 0.00 | 0.00 | 84 | 1013.1 |
| 20260507173510 | 12 | 126 | 17.7 | 20.9 | 0.00 | 0.00 | 0.00 | 84 | 1013.1 |
| 20260507173136 | 12 | 134 | 17.7 | 20.9 | 0.00 | 0.00 | 0.00 | 85 | 1013.1 |
| 20260507172551 | 12 | 123 | 19.3 | 20.9 | 0.00 | 0.00 | 0.00 | 84 | 1013.1 |
| 20260507172041 | 12 | 128 | 17.7 | 20.9 | 0.00 | 0.00 | 0.00 | 85 | 1013.1 |
| 20260507171530 | 12 | 144 | 16.1 | 20.9 | 0.00 | 0.00 | 0.00 | 84 | 1013.2 |
| 20260507171019 | 12 | 136 | 16.1 | 22.5 | 0.00 | 0.00 | 0.00 | 84 | 1013.3 |
| 20260507170510 | 11 | 132 | 17.7 | 22.5 | 0.00 | 0.00 | 0.00 | 85 | 1013.3 |
| 20260507170105 | 12 | 138 | 17.7 | 20.9 | 0.00 | 0.00 | 0.00 | 85 | 1013.2 |
| 20260507165550 | 12 | 125 | 16.1 | 20.9 | 0.00 | 0.00 | 0.00 | 85 | 1013.2 |
| 20260507165040 | 12 | 134 | 17.7 | 20.9 | 0.00 | 0.00 | 0.00 | 85 | 1013.3 |
| 20260507164534 | 12 | 134 | 17.7 | 19.3 | 0.00 | 0.00 | 0.00 | 85 | 1013.3 |
| 20260507164010 | 11 | 133 | 16.1 | 19.3 | 0.00 | 0.00 | 0.00 | 85 | 1013.3 |
| 20260507163603 | 12 | 131 | 16.1 | 19.3 | 0.00 | 0.00 | 0.00 | 86 | 1013.3 |
| 20260507163052 | 11 | 138 | 17.7 | 19.3 | 0.00 | 0.00 | 0.00 | 85 | 1013.3 |
| 20260507162542 | 11 | 130 | 16.1 | 19.3 | 0.00 | 0.00 | 0.00 | 86 | 1013.2 |
| 20260507162031 | 12 | 127 | 16.1 | 19.3 | 0.00 | 0.00 | 0.00 | 86 | 1013.2 |
| 20260507161521 | 12 | 134 | 16.1 | 19.3 | 0.00 | 0.00 | 0.00 | 85 | 1013.3 |
| 20260507161010 | 12 | 126 | 16.1 | 19.3 | 0.00 | 0.00 | 0.00 | 85 | 1013.3 |
| 20260507160603 | 12 | 130 | 16.1 | 22.5 | 0.00 | 0.00 | 0.00 | 85 | 1013.3 |
| 20260507160100 | 12 | 137 | 17.7 | 22.5 | 0.00 | 0.00 | 0.00 | 85 | 1013.4 |
| 20260507155542 | 12 | 144 | 17.7 | 20.9 | 0.00 | 0.00 | 0.00 | 85 | 1013.4 |
| 20260507155032 | 12 | 146 | 17.7 | 20.9 | 0.00 | 0.00 | 0.00 | 85 | 1013.4 |
| 20260507154525 | 12 | 140 | 16.1 | 24.1 | 0.00 | 0.00 | 0.00 | 86 | 1013.4 |
| 20260507154001 | 12 | 142 | 17.7 | 24.1 | 0.00 | 0.00 | 0.00 | 86 | 1013.4 |
| 20260507153552 | 12 | 155 | 16.1 | 24.1 | 0.00 | 0.00 | 0.00 | 85 | 1013.5 |
| 20260507153043 | 12 | 153 | 19.3 | 24.1 | 0.00 | 0.00 | 0.00 | 85 | 1013.5 |
| 20260507152533 | 12 | 155 | 14.5 | 24.1 | 0.00 | 0.00 | 0.00 | 85 | 1013.6 |
| 20260507152031 | 12 | 147 | 16.1 | 24.1 | 0.00 | 0.00 | 0.00 | 85 | 1013.6 |
| 20260507151514 | 12 | 161 | 19.3 | 25.7 | 0.00 | 0.00 | 0.00 | 85 | 1013.7 |
| 20260507151001 | 12 | 150 | 19.3 | 24.1 | 0.00 | 0.00 | 0.00 | 85 | 1013.7 |
| 20260507150554 | 12 | 151 | 14.5 | 24.1 | 0.00 | 0.00 | 0.00 | 85 | 1013.7 |
| 20260507150044 | 12 | 148 | 19.3 | 24.1 | 0.00 | 0.00 | 0.00 | 85 | 1013.7 |
| 20260507145534 | 12 | 148 | 17.7 | 25.7 | 0.00 | 0.00 | 0.00 | 85 | 1013.7 |
| 20260507145027 | 12 | 149 | 20.9 | 25.7 | 0.00 | 0.00 | 0.00 | 85 | 1013.8 |
| 20260507144513 | 12 | 150 | 17.7 | 24.1 | 0.00 | 0.00 | 0.00 | 84 | 1013.8 |
| 20260507144105 | 12 | 150 | 17.7 | 24.1 | 0.00 | 0.00 | 0.00 | 85 | 1013.8 |
| 20260507143542 | 12 | 150 | 19.3 | 25.7 | 0.00 | 0.00 | 0.00 | 85 | 1013.8 |
| 20260507143038 | 12 | 146 | 17.7 | 25.7 | 0.00 | 0.00 | 0.00 | 85 | 1013.9 |
| 20260507142524 | 12 | 152 | 19.3 | 24.1 | 0.00 | 0.00 | 0.00 | 85 | 1013.9 |
| 20260507142022 | 12 | 142 | 19.3 | 24.1 | 0.00 | 0.00 | 0.00 | 85 | 1013.9 |
| 20260507141502 | 12 | 149 | 17.7 | 25.7 | 0.00 | 0.00 | 0.00 | 85 | 1014.0 |
| 20260507141054 | 12 | 146 | 19.3 | 27.4 | 0.00 | 0.00 | 0.00 | 85 | 1014.1 |
| 20260507140544 | 12 | 144 | 20.9 | 27.4 | 0.00 | 0.00 | 0.00 | 84 | 1014.1 |
| 20260507140035 | 12 | 156 | 20.9 | 27.4 | 0.00 | 0.00 | 0.00 | 84 | 1014.1 |
| 20260507135523 | 12 | 158 | 17.7 | 27.4 | 0.00 | 0.00 | 0.00 | 84 | 1014.1 |
| 20260507135013 | 12 | 155 | 19.3 | 25.7 | 0.00 | 0.00 | 0.00 | 85 | 1014.1 |
| 20260507134503 | 12 | 184 | 17.7 | 24.1 | 0.00 | 0.00 | 0.00 | 84 | 1014.1 |
| 20260507134055 | 12 | 154 | 17.7 | 24.1 | 0.00 | 0.00 | 0.00 | 84 | 1014.1 |
| 20260507133534 | 12 | 154 | 17.7 | 24.1 | 0.00 | 0.00 | 0.00 | 84 | 1014.1 |
| 20260507133030 | 12 | 149 | 16.1 | 22.5 | 0.00 | 0.00 | 0.00 | 84 | 1014.1 |
| 20260507132520 | 12 | 159 | 16.1 | 24.1 | 0.00 | 0.00 | 0.00 | 84 | 1014.1 |
| 20260507132003 | 12 | 153 | 19.3 | 24.1 | 0.00 | 0.00 | 0.00 | 84 | 1014.1 |
| 20260507131557 | 12 | 157 | 17.7 | 22.5 | 0.00 | 0.00 | 0.00 | 84 | 1014.1 |
| 20260507131043 | 12 | 167 | 14.5 | 22.5 | 0.00 | 0.00 | 0.00 | 84 | 1014.1 |
| 20260507130536 | 12 | 185 | 14.5 | 22.5 | 0.00 | 0.00 | 0.00 | 84 | 1014.1 |
| 20260507130022 | 12 | 145 | 14.5 | 22.5 | 0.00 | 0.00 | 0.00 | 84 | 1014.2 |
| 20260507125514 | 12 | 160 | 16.1 | 22.5 | 0.00 | 0.00 | 0.00 | 84 | 1014.3 |
| 20260507125004 | 12 | 150 | 16.1 | 22.5 | 0.00 | 0.00 | 0.00 | 83 | 1014.2 |
| 20260507124601 | 12 | 157 | 14.5 | 22.5 | 0.00 | 0.00 | 0.00 | 83 | 1014.2 |
| 20260507124044 | 12 | 175 | 14.5 | 24.1 | 0.00 | 0.00 | 0.00 | 84 | 1014.2 |
| 20260507123526 | 12 | 148 | 16.1 | 22.5 | 0.00 | 0.00 | 0.00 | 84 | 1014.2 |
| 20260507123014 | 12 | 150 | 14.5 | 22.5 | 0.00 | 0.00 | 0.00 | 84 | 1014.2 |
| 20260507122502 | 12 | 154 | 16.1 | 22.5 | 0.00 | 0.00 | 0.00 | 83 | 1014.3 |
| 20260507122054 | 12 | 150 | 14.5 | 20.9 | 0.00 | 0.00 | 0.00 | 83 | 1014.3 |
| 20260507121545 | 12 | 150 | 14.5 | 22.5 | 0.00 | 0.00 | 0.00 | 83 | 1014.3 |
| 20260507121034 | 12 | 205 | 12.9 | 17.7 | 0.00 | 0.00 | 0.00 | 83 | 1014.4 |
| 20260507120524 | 12 | 153 | 12.9 | 19.3 | 0.00 | 0.00 | 0.00 | 83 | 1014.4 |
| 20260507120014 | 12 | 163 | 14.5 | 20.9 | 0.00 | 0.00 | 0.00 | 83 | 1014.4 |
| 20260507115504 | 12 | 145 | 11.3 | 17.7 | 0.00 | 0.00 | 0.00 | 84 | 1014.5 |
| 20260507115055 | 12 | 174 | 11.3 | 16.1 | 0.00 | 0.00 | 0.00 | 83 | 1014.5 |
| 20260507114558 | 12 | 149 | 14.5 | 19.3 | 0.00 | 0.00 | 0.00 | 83 | 1014.5 |
| 20260507114035 | 12 | 160 | 12.9 | 20.9 | 0.00 | 0.00 | 0.00 | 83 | 1014.5 |
| 20260507113513 | 12 | 159 | 12.9 | 20.9 | 0.00 | 0.00 | 0.00 | 83 | 1014.5 |
| 20260507113010 | 12 | 151 | 17.7 | 22.5 | 0.00 | 0.00 | 0.00 | 82 | 1014.5 |
| 20260507112555 | 12 | 159 | 12.9 | 24.1 | 0.00 | 0.00 | 0.00 | 82 | 1014.5 |
| 20260507112050 | 12 | 160 | 16.1 | 24.1 | 0.00 | 0.00 | 0.00 | 82 | 1014.5 |
| 20260507111536 | 12 | 148 | 14.5 | 22.5 | 0.00 | 0.00 | 0.00 | 82 | 1014.5 |
| 20260507111025 | 12 | 148 | 14.5 | 22.5 | 0.00 | 0.00 | 0.00 | 81 | 1014.6 |
| 20260507110515 | 12 | 152 | 16.1 | 19.3 | 0.00 | 0.00 | 0.00 | 81 | 1014.5 |
| 20260507110005 | 12 | 144 | 14.5 | 19.3 | 0.00 | 0.00 | 0.00 | 81 | 1014.6 |
| 20260507105556 | 12 | 146 | 14.5 | 22.5 | 0.00 | 0.00 | 0.00 | 81 | 1014.6 |
| 20260507105049 | 12 | 144 | 17.7 | 22.5 | 0.00 | 0.00 | 0.00 | 82 | 1014.6 |
| 20260507104537 | 12 | 155 | 16.1 | 22.5 | 0.00 | 0.00 | 0.00 | 81 | 1014.6 |
| 20260507104016 | 12 | 156 | 14.5 | 24.1 | 0.00 | 0.00 | 0.00 | 83 | 1014.6 |
| 20260507103505 | 12 | 142 | 17.7 | 24.1 | 0.00 | 0.00 | 0.00 | 82 | 1014.5 |
| 20260507103058 | 12 | 141 | 19.3 | 22.5 | 0.00 | 0.00 | 0.00 | 82 | 1014.5 |
| 20260507102546 | 12 | 153 | 17.7 | 22.5 | 0.00 | 0.00 | 0.00 | 83 | 1014.5 |
| 20260507102036 | 12 | 160 | 19.3 | 24.1 | 0.00 | 0.00 | 0.00 | 83 | 1014.5 |
| 20260507101534 | 12 | 142 | 20.9 | 24.1 | 0.00 | 0.00 | 0.00 | 83 | 1014.5 |
| 20260507101017 | 12 | 139 | 20.9 | 24.1 | 0.00 | 0.00 | 0.00 | 83 | 1014.4 |
| 20260507100506 | 12 | 145 | 20.9 | 24.1 | 0.00 | 0.00 | 0.00 | 83 | 1014.5 |
| 20260507100058 | 12 | 162 | 17.7 | 25.7 | 0.00 | 0.00 | 0.00 | 83 | 1014.5 |
| 20260507095550 | 11 | 148 | 19.3 | 27.4 | 0.00 | 0.00 | 0.00 | 83 | 1014.5 |
| 20260507095038 | 11 | 146 | 20.9 | 27.4 | 0.00 | 0.00 | 0.00 | 83 | 1014.5 |
| 20260507094534 | 11 | 147 | 22.5 | 27.4 | 0.00 | 0.00 | 0.00 | 83 | 1014.5 |
| 20260507094012 | 11 | 140 | 22.5 | 25.7 | 0.00 | 0.00 | 0.00 | 83 | 1014.4 |
| 20260507093558 | 11 | 148 | 20.9 | 25.7 | 0.00 | 0.00 | 0.00 | 83 | 1014.4 |
| 20260507093048 | 11 | 142 | 19.3 | 25.7 | 0.00 | 0.00 | 0.00 | 83 | 1014.4 |
| 20260507092538 | 11 | 139 | 20.9 | 24.1 | 0.00 | 0.00 | 0.00 | 83 | 1014.4 |
| 20260507092028 | 11 | 132 | 20.9 | 24.1 | 0.00 | 0.00 | 0.00 | 83 | 1014.3 |
| 20260507091520 | 11 | 143 | 19.3 | 24.1 | 0.00 | 0.00 | 0.00 | 83 | 1014.3 |
| 20260507091008 | 11 | 148 | 17.7 | 25.7 | 0.00 | 0.00 | 0.00 | 83 | 1014.3 |
| 20260507090600 | 11 | 149 | 19.3 | 25.7 | 0.00 | 0.00 | 0.00 | 83 | 1014.3 |
| 20260507090046 | 11 | 142 | 19.3 | 25.7 | 0.00 | 0.00 | 0.00 | 82 | 1014.3 |
| 20260507085536 | 11 | 153 | 19.3 | 24.1 | 0.00 | 0.00 | 0.00 | 82 | 1014.4 |
| 20260507085026 | 11 | 150 | 17.7 | 25.7 | 0.00 | 0.00 | 0.00 | 82 | 1014.3 |
| 20260507084519 | 11 | 149 | 19.3 | 27.4 | 0.00 | 0.00 | 0.00 | 82 | 1014.4 |
| 20260507084107 | 11 | 136 | 24.1 | 27.4 | 0.00 | 0.00 | 0.00 | 82 | 1014.3 |
| 20260507083546 | 11 | 145 | 17.7 | 25.7 | 0.00 | 0.00 | 0.00 | 82 | 1014.4 |
| 20260507083036 | 11 | 153 | 19.3 | 25.7 | 0.00 | 0.00 | 0.00 | 82 | 1014.4 |
| 20260507082527 | 11 | 148 | 19.3 | 25.7 | 0.00 | 0.00 | 0.00 | 82 | 1014.4 |
| 20260507082016 | 11 | 146 | 17.7 | 24.1 | 0.00 | 0.00 | 0.00 | 82 | 1014.4 |
| 20260507081506 | 11 | 143 | 19.3 | 27.4 | 0.00 | 0.00 | 0.00 | 82 | 1014.3 |
| 20260507081102 | 11 | 143 | 20.9 | 27.4 | 0.00 | 0.00 | 0.00 | 82 | 1014.3 |
| 20260507080548 | 11 | 145 | 20.9 | 27.4 | 0.00 | 0.00 | 0.00 | 82 | 1014.2 |
| 20260507080039 | 11 | 140 | 20.9 | 27.4 | 0.00 | 0.00 | 0.00 | 82 | 1014.3 |
| 20260507075527 | 11 | 142 | 20.9 | 27.4 | 0.00 | 0.00 | 0.00 | 83 | 1014.3 |
| 20260507075017 | 11 | 148 | 20.9 | 25.7 | 0.00 | 0.00 | 0.00 | 84 | 1014.3 |
| 20260507074504 | 11 | 137 | 20.9 | 25.7 | 0.00 | 0.00 | 0.00 | 85 | 1014.3 |
| 20260507074055 | 11 | 120 | 19.3 | 24.1 | 0.00 | 0.00 | 0.00 | 87 | 1014.3 |
| 20260507073535 | 11 | 120 | 20.9 | 25.7 | 0.00 | 0.00 | 0.00 | 87 | 1014.2 |
| 20260507073024 | 11 | 132 | 20.9 | 25.7 | 0.00 | 0.00 | 0.00 | 87 | 1014.3 |
| 20260507072514 | 11 | 128 | 17.7 | 20.9 | 0.00 | 0.00 | 0.00 | 87 | 1014.3 |
| 20260507072004 | 11 | 125 | 14.5 | 20.9 | 0.00 | 0.00 | 0.00 | 87 | 1014.3 |
| 20260507071555 | 11 | 120 | 16.1 | 20.9 | 0.00 | 0.00 | 0.00 | 87 | 1014.3 |
| 20260507071045 | 11 | 117 | 16.1 | 20.9 | 0.00 | 0.00 | 0.00 | 86 | 1014.3 |
| 20260507070535 | 11 | 123 | 17.7 | 20.9 | 0.00 | 0.00 | 0.00 | 87 | 1014.2 |
| 20260507070038 | 11 | 112 | 16.1 | 20.9 | 0.00 | 0.00 | 0.00 | 86 | 1014.2 |
| 20260507065514 | 11 | 114 | 16.1 | 20.9 | 0.00 | 0.00 | 0.00 | 86 | 1014.2 |
| 20260507065006 | 11 | 119 | 16.1 | 20.9 | 0.00 | 0.00 | 0.00 | 86 | 1014.2 |
| 20260507064559 | 11 | 109 | 16.1 | 20.9 | 0.00 | 0.00 | 0.00 | 86 | 1014.2 |
| 20260507064047 | 11 | 112 | 17.7 | 20.9 | 0.00 | 0.00 | 0.00 | 86 | 1014.1 |
| 20260507063526 | 10 | 111 | 16.1 | 20.9 | 0.00 | 0.00 | 0.00 | 87 | 1014.1 |
| 20260507063015 | 10 | 112 | 14.5 | 19.3 | 0.00 | 0.00 | 0.00 | 87 | 1014.1 |
| 20260507062505 | 10 | 101 | 12.9 | 16.1 | 0.00 | 0.00 | 0.00 | 88 | 1014.0 |
| 20260507062057 | 10 | 90 | 12.9 | 16.1 | 0.00 | 0.00 | 0.00 | 87 | 1014.1 |
| 20260507061547 | 10 | 76 | 11.3 | 17.7 | 0.00 | 0.00 | 0.00 | 88 | 1014.1 |
| 20260507061036 | 10 | 82 | 14.5 | 17.7 | 0.00 | 0.00 | 0.00 | 87 | 1014.0 |
| 20260507060526 | 10 | 76 | 11.3 | 17.7 | 0.00 | 0.00 | 0.00 | 87 | 1014.1 |
| 20260507060020 | 10 | 79 | 12.9 | 17.7 | 0.00 | 0.00 | 0.00 | 86 | 1014.0 |
| 20260507055507 | 10 | 67 | 14.5 | 19.3 | 0.00 | 0.00 | 0.00 | 86 | 1013.9 |
| 20260507055101 | 10 | 65 | 14.5 | 19.3 | 0.00 | 0.00 | 0.00 | 86 | 1013.9 |
| 20260507054548 | 10 | 75 | 14.5 | 17.7 | 0.00 | 0.00 | 0.00 | 86 | 1013.9 |
| 20260507054038 | 10 | 72 | 12.9 | 17.7 | 0.00 | 0.00 | 0.00 | 86 | 1013.8 |
| 20260507053517 | 10 | 69 | 12.9 | 19.3 | 0.00 | 0.00 | 0.00 | 86 | 1013.8 |
| 20260507053006 | 10 | 73 | 14.5 | 19.3 | 0.00 | 0.00 | 0.00 | 86 | 1013.8 |
| 20260507052557 | 10 | 64 | 14.5 | 19.3 | 0.00 | 0.00 | 0.00 | 86 | 1013.7 |
| 20260507052047 | 9 | 56 | 16.1 | 20.9 | 0.00 | 0.00 | 0.00 | 85 | 1013.7 |
| 20260507051537 | 9 | 58 | 17.7 | 19.3 | 0.00 | 0.00 | 0.00 | 85 | 1013.7 |
| 20260507051026 | 10 | 60 | 16.1 | 20.9 | 0.00 | 0.00 | 0.00 | 85 | 1013.7 |
| 20260507050516 | 10 | 61 | 14.5 | 19.3 | 0.00 | 0.00 | 0.00 | 84 | 1013.7 |
| 20260507050015 | 10 | 64 | 14.5 | 19.3 | 0.00 | 0.00 | 0.00 | 84 | 1013.7 |
| 20260507045600 | 9 | 60 | 12.9 | 20.9 | 0.00 | 0.00 | 0.00 | 84 | 1013.7 |
| 20260507045048 | 10 | 55 | 16.1 | 20.9 | 0.00 | 0.00 | 0.00 | 84 | 1013.6 |
| 20260507044551 | 10 | 65 | 16.1 | 20.9 | 0.00 | 0.00 | 0.00 | 84 | 1013.6 |
| 20260507044029 | 10 | 60 | 16.1 | 20.9 | 0.00 | 0.00 | 0.00 | 83 | 1013.6 |
| 20260507043505 | 10 | 58 | 16.1 | 20.9 | 0.00 | 0.00 | 0.00 | 83 | 1013.5 |
| 20260507043058 | 10 | 52 | 16.1 | 20.9 | 0.00 | 0.00 | 0.00 | 84 | 1013.5 |
| 20260507042548 | 10 | 58 | 16.1 | 20.9 | 0.00 | 0.00 | 0.00 | 83 | 1013.5 |
| 20260507042037 | 10 | 40 | 17.7 | 20.9 | 0.00 | 0.00 | 0.00 | 83 | 1013.5 |
| 20260507041527 | 10 | 59 | 17.7 | 20.9 | 0.00 | 0.00 | 0.00 | 83 | 1013.5 |
| 20260507041019 | 10 | 53 | 17.7 | 20.9 | 0.00 | 0.00 | 0.00 | 83 | 1013.5 |
| 20260507040507 | 10 | 47 | 17.7 | 20.9 | 0.00 | 0.00 | 0.00 | 83 | 1013.5 |
| 20260507040105 | 10 | 55 | 16.1 | 20.9 | 0.00 | 0.00 | 0.00 | 82 | 1013.5 |
| 20260507035548 | 10 | 52 | 16.1 | 20.9 | 0.00 | 0.00 | 0.00 | 82 | 1013.5 |
| 20260507035038 | 10 | 58 | 16.1 | 20.9 | 0.00 | 0.00 | 0.00 | 83 | 1013.5 |
| 20260507034530 | 10 | 53 | 16.1 | 20.9 | 0.00 | 0.00 | 0.00 | 83 | 1013.4 |
| 20260507034006 | 10 | 44 | 16.1 | 20.9 | 0.00 | 0.00 | 0.00 | 82 | 1013.4 |
| 20260507033558 | 10 | 40 | 16.1 | 20.9 | 0.00 | 0.00 | 0.00 | 82 | 1013.4 |
| 20260507033100 | 10 | 55 | 16.1 | 19.3 | 0.00 | 0.00 | 0.00 | 82 | 1013.4 |
| 20260507032537 | 10 | 43 | 14.5 | 17.7 | 0.00 | 0.00 | 0.00 | 81 | 1013.4 |
| 20260507032038 | 10 | 41 | 14.5 | 19.3 | 0.00 | 0.00 | 0.00 | 81 | 1013.4 |
| 20260507031519 | 10 | 38 | 14.5 | 19.3 | 0.00 | 0.00 | 0.00 | 81 | 1013.4 |
| 20260507031011 | 10 | 35 | 16.1 | 19.3 | 0.00 | 0.00 | 0.00 | 81 | 1013.4 |
| 20260507030559 | 10 | 48 | 14.5 | 19.3 | 0.00 | 0.00 | 0.00 | 80 | 1013.4 |
| 20260507030106 | 10 | 36 | 14.5 | 19.3 | 0.00 | 0.00 | 0.00 | 80 | 1013.4 |
| 20260507025539 | 10 | 49 | 16.1 | 19.3 | 0.00 | 0.00 | 0.00 | 80 | 1013.3 |
| 20260507025028 | 10 | 41 | 16.1 | 20.9 | 0.00 | 0.00 | 0.00 | 79 | 1013.2 |
| 20260507024521 | 10 | 35 | 17.7 | 20.9 | 0.00 | 0.00 | 0.00 | 79 | 1013.2 |
| 20260507024111 | 10 | 46 | 17.7 | 20.9 | 0.00 | 0.00 | 0.00 | 79 | 1013.2 |
| 20260507023549 | 10 | 37 | 16.1 | 22.5 | 0.00 | 0.00 | 0.00 | 79 | 1013.2 |
| 20260507023039 | 10 | 38 | 17.7 | 22.5 | 0.00 | 0.00 | 0.00 | 79 | 1013.2 |
| 20260507022529 | 11 | 58 | 16.1 | 22.5 | 0.00 | 0.00 | 0.00 | 79 | 1013.2 |
| 20260507022019 | 10 | 54 | 17.7 | 22.5 | 0.00 | 0.00 | 0.00 | 78 | 1013.2 |
| 20260507021508 | 11 | 57 | 16.1 | 24.1 | 0.00 | 0.00 | 0.00 | 78 | 1013.2 |
| 20260507021104 | 11 | 57 | 16.1 | 24.1 | 0.00 | 0.00 | 0.00 | 78 | 1013.2 |
| 20260507020551 | 11 | 67 | 19.3 | 22.5 | 0.00 | 0.00 | 0.00 | 78 | 1013.2 |
| 20260507020053 | 11 | 69 | 19.3 | 24.1 | 0.00 | 0.00 | 0.00 | 77 | 1013.1 |
| 20260507015529 | 11 | 63 | 17.7 | 24.1 | 0.00 | 0.00 | 0.00 | 77 | 1013.1 |
| 20260507015021 | 11 | 62 | 19.3 | 22.5 | 0.00 | 0.00 | 0.00 | 77 | 1013.1 |
| 20260507014510 | 11 | 66 | 16.1 | 22.5 | 0.00 | 0.00 | 0.00 | 77 | 1013.1 |
| 20260507014102 | 11 | 59 | 17.7 | 22.5 | 0.00 | 0.00 | 0.00 | 77 | 1013.1 |
| 20260507013543 | 11 | 80 | 19.3 | 22.5 | 0.00 | 0.00 | 0.00 | 76 | 1013.1 |
| 20260507013036 | 11 | 70 | 17.7 | 24.1 | 0.00 | 0.00 | 0.00 | 77 | 1013.0 |
| 20260507012523 | 11 | 69 | 19.3 | 22.5 | 0.00 | 0.00 | 0.00 | 76 | 1013.0 |
| 20260507012011 | 11 | 71 | 19.3 | 24.1 | 0.00 | 0.00 | 0.00 | 76 | 1013.0 |
| 20260507011602 | 11 | 71 | 19.3 | 24.1 | 0.00 | 0.00 | 0.00 | 76 | 1013.1 |
| 20260507011048 | 11 | 64 | 19.3 | 25.7 | 0.00 | 0.00 | 0.00 | 75 | 1013.1 |
| 20260507010537 | 11 | 70 | 20.9 | 25.7 | 0.00 | 0.00 | 0.00 | 75 | 1013.1 |
| 20260507010034 | 11 | 66 | 20.9 | 25.7 | 0.00 | 0.00 | 0.00 | 75 | 1013.1 |
| 20260507005517 | 11 | 68 | 19.3 | 25.7 | 0.00 | 0.00 | 0.00 | 75 | 1013.1 |
| 20260507005010 | 11 | 67 | 22.5 | 25.7 | 0.00 | 0.00 | 0.00 | 74 | 1013.0 |
| 20260507004559 | 11 | 73 | 22.5 | 25.7 | 0.00 | 0.00 | 0.00 | 74 | 1013.0 |
| 20260507004049 | 11 | 71 | 19.3 | 25.7 | 0.00 | 0.00 | 0.00 | 74 | 1013.0 |
| 20260507003527 | 11 | 68 | 19.3 | 25.7 | 0.00 | 0.00 | 0.00 | 74 | 1013.1 |
| 20260507003018 | 11 | 71 | 20.9 | 25.7 | 0.00 | 0.00 | 0.00 | 74 | 1013.1 |
| 20260507002507 | 11 | 69 | 20.9 | 25.7 | 0.00 | 0.00 | 0.00 | 73 | 1013.1 |
| 20260507002059 | 11 | 76 | 20.9 | 25.7 | 0.00 | 0.00 | 0.00 | 73 | 1013.1 |
| 20260507001546 | 11 | 71 | 20.9 | 25.7 | 0.00 | 0.00 | 0.00 | 74 | 1013.1 |
| 20260507001036 | 11 | 82 | 20.9 | 25.7 | 0.00 | 0.00 | 0.00 | 73 | 1013.1 |
| 20260507000526 | 11 | 71 | 17.7 | 22.5 | 0.00 | 0.00 | 0.00 | 74 | 1013.2 |
| 20260507000016 | 11 | 59 | 11.3 | 16.1 | 0.00 | 0.00 | 0.00 | 74 | 1013.2 |
| 20260506235507 | 11 | 54 | 11.3 | 16.1 | 0.00 | 0.00 | 0.00 | 75 | 1013.2 |
| 20260506235058 | 11 | 41 | 11.3 | 16.1 | 0.00 | 0.00 | 0.00 | 75 | 1013.2 |